DELTA 1 DEB, 10826

Orbit data source: Space-Track

DELTA 1 DEB, 10826 is space debris in SSO originally from a launch on Thu, 29 Jul 1976 UTC launched from the Air Force Western Test Range (AFWTR). Debris objects in space refer to the collection of defunct objects orbiting the Earth. Examples of debris include non-operational satellites, rocket bodies, and fragments generated from explosions, collisions, or faulty payload assembly.

Loading next visibility...
Identifier
10826, 1976-077BW
Orbit
SSO
Country
Flag of USUS
Related business
Manufacturer
Unknown
Mission
Spacecraft
Bus & Motor
Unknown
Mass
Unknown
Launch date (UTC)
1976-07-29 (50 years ago)
Launch vehicle
Unknown
Launch site
Air Force Western Test Range (AFWTR)
Object type
Payload
Rocket body
Debris
Shape & HBR
Unknown shape, 0.1 m
Radar Cross Section
Small (<0.1 m²)

Expand to show TLE details & history
Last TLE update: 6 hours ago

TLE from 6 hours ago
0 DELTA 1 DEB
1 10826U 76077BW  26126.55841851  .00001032  00000-0  60605-2 0  9993
2 10826 101.9375  42.4907 0109233 169.3408  11.0566 12.60133000243756
Epoch: 2026-05-06T13:24Z
TLE epoch observation values (Epoch: 2026-05-06T13:24:07.359Z)
Latitude
-0.73694°
Longitude
156.88782°
Altitude
1,341.469 km
Speed
7.226 km/s
True Right ascension
14h 49m 20s
True Declination
0° 43' 58"
Sunlit
Object was in full shadow at epoch
Visualization orbit readout
Latitude
Unknown
Longitude
Unknown
Altitude
Unknown
Speed
Unknown
Apparent Right ascension
Unknown
Apparent Declination
Unknown
Sunlit
N/A
Visualization observer readout
Local Sidereal Time
02:58:10
Azimuth
Unknown
Elevation
Unknown
Doppler factor
Unknown
Orbital elements
Apogee altitude
1,505.121 km
Perigee altitude
1,334.759 km
Semi-major axis
7,798.077 km
Eccentricity
0.01092
Inclination
101.9375°
RAAN
42.4907°
Arg. of periapsis
169.3408°
True anomaly
11.29991°
Mean anomaly
11.0566°
Eccentric anomaly
11.17793°
Mean motion
3.15182 °/min
Orbital period
114.22 mins
BSTAR
0.0060605
Loading maneuver chart data...
Computing Atmospheric mass density...
Loading historical data...
Loading historical data...
Loading historical data...
Loading historical data...
Loading historical data...
Loading historical data...
Loading historical data...

Documentation

Showing up to 5 results
|